Location: Observatory
(52.1446°N, 0.4624°W)
Time: 22:37:18
(UTC+00:00)

ISS - Pass Details

Date: 14 January 2018
Orbit: 402 x 407 km, 51.6° (Epoch: 22 January)

Event Time Altitude Azimuth Distance (km) Brightness Sun altitude
Exits shadow 05:16:30 15° 153° (SSE) 1,180 -1.2 -24.9°
Drops below altitude 10° 05:17:18 10° 145° (SE) 1,463 -0.6 -24.8°
Sets 05:19:31 0° 134° (SE) 2,321 0.7 -24.4°
